When you browse on this site, cookies collect data to enhance your experience and personalize the content and advertising you see.
Visit our Privacy Policy to learn more. By continuing to use the site, you agree to this use of cookies and data.
  • In Hungary
  • List of Countries
  • For 7 days
  • Water Temperature
  • Satellite Maps
  • Weather Map
  • News
  • Weather Widgets
  • user-avatar
    Login

    Hourly Weather Smakovo

    Today, 22 January, Tuesday

    Time Temperature Precipitation Wind Pressure Humidity
    00:00 -17°C° 0 mm 6 mps 748 mmHg 90%
    01:00 -17°C° 0 mm 6 mps 747 mmHg 89%
    02:00 -18°C° 0.3 mm 7 mps 746 mmHg 90%
    03:00 -17°C° 0.3 mm 7 mps 745 mmHg 90%
    04:00 -16°C° 0 mm 9 mps 744 mmHg 91%
    05:00 -16°C° 0.6 mm 8 mps 744 mmHg 92%
    06:00 -15°C° 0.6 mm 8 mps 743 mmHg 92%
    07:00 -13°C° 0.6 mm 8 mps 743 mmHg 92%
    08:00 -12°C° 0.6 mm 7 mps 742 mmHg 92%
    09:00 -12°C° 0.6 mm 7 mps 742 mmHg 92%
    10:00 -10°C° 0 mm 6 mps 742 mmHg 92%
    11:00 -9°C° 0.6 mm 6 mps 742 mmHg 93%
    12:00 -8°C° 0.6 mm 6 mps 742 mmHg 93%
    13:00 -6°C° 0.6 mm 6 mps 741 mmHg 93%
    14:00 -7°C° 0.1 mm 5 mps 742 mmHg 92%
    15:00 -8°C° 0.1 mm 4 mps 742 mmHg 91%
    16:00 -8°C° 0.1 mm 4 mps 742 mmHg 90%
    17:00 -9°C° 0 mm 3 mps 743 mmHg 91%
    18:00 -12°C° 0 mm 3 mps 743 mmHg 92%
    19:00 -14°C° 0 mm 3 mps 744 mmHg 93%
    20:00 -14°C° 0 mm 2 mps 744 mmHg 94%
    21:00 -15°C° 0 mm 2 mps 745 mmHg 94%
    22:00 -16°C° 0 mm 2 mps 746 mmHg 95%
    23:00 -17°C° 0 mm 2 mps 746 mmHg 96%

    Tomorrow, 23 January, Wednesday

    Time Temperature Precipitation Wind Pressure Humidity
    00:00 -16°C° 0 mm 1 mps 747 mmHg 97%
    01:00 -17°C° 0 mm 1 mps 747 mmHg 98%
    02:00 -17°C° 0 mm 1 mps 748 mmHg 99%
    03:00 -18°C° 0 mm 1 mps 748 mmHg 99%
    04:00 -18°C° 0 mm 1 mps 748 mmHg 99%
    05:00 -18°C° 0 mm 1 mps 749 mmHg 99%
    06:00 -19°C° 0 mm 1 mps 749 mmHg 99%
    07:00 -19°C° 0 mm 1 mps 749 mmHg 99%
    08:00 -18°C° 0 mm 1 mps 750 mmHg 98%
    09:00 -18°C° 0 mm 1 mps 750 mmHg 97%
    10:00 -18°C° 0 mm 0 mps 750 mmHg 96%
    11:00 -17°C° 0 mm 1 mps 751 mmHg 95%
    12:00 -16°C° 0 mm 1 mps 751 mmHg 93%
    13:00 -15°C° 0 mm 1 mps 751 mmHg 92%
    14:00 -16°C° 0 mm 1 mps 751 mmHg 94%
    15:00 -17°C° 0 mm 1 mps 751 mmHg 95%
    16:00 -19°C° 0 mm 1 mps 752 mmHg 97%
    17:00 -20°C° 0 mm 1 mps 752 mmHg 97%
    18:00 -21°C° 0 mm 1 mps 752 mmHg 98%
    19:00 -23°C° 0 mm 1 mps 753 mmHg 99%
    20:00 -23°C° 0 mm 1 mps 753 mmHg 99%
    21:00 -24°C° 0 mm 1 mps 754 mmHg 99%
    22:00 -24°C° 0 mm 0 mps 754 mmHg 99%
    23:00 -24°C° 0 mm 0 mps 754 mmHg 99%

    Day after tomorrow, 24 January, Thursday

    Time Temperature Precipitation Wind Pressure Humidity
    00:00 -24°C° 0 mm 0 mps 755 mmHg 99%
    01:00 -25°C° 0 mm 0 mps 755 mmHg 99%
    02:00 -25°C° 0 mm 0 mps 756 mmHg 99%
    03:00 -25°C° 0 mm 0 mps 756 mmHg 99%
    04:00 -25°C° 0 mm 0 mps 757 mmHg 99%
    05:00 -25°C° 0 mm 0 mps 757 mmHg 99%
    06:00 -25°C° 0 mm 1 mps 757 mmHg 98%
    07:00 -25°C° 0 mm 1 mps 758 mmHg 98%
    08:00 -24°C° 0 mm 1 mps 758 mmHg 97%
    09:00 -23°C° 0 mm 1 mps 758 mmHg 96%
    10:00 -22°C° 0 mm 1 mps 759 mmHg 95%
    11:00 -21°C° 0 mm 1 mps 759 mmHg 94%
    12:00 -21°C° 0 mm 2 mps 759 mmHg 93%
    13:00 -20°C° 0 mm 2 mps 758 mmHg 92%
    14:00 -20°C° 0 mm 2 mps 758 mmHg 93%
    15:00 -21°C° 0 mm 2 mps 758 mmHg 94%
    16:00 -21°C° 0 mm 2 mps 758 mmHg 95%
    17:00 -21°C° 0 mm 2 mps 758 mmHg 94%
    18:00 -21°C° 0 mm 2 mps 758 mmHg 92%
    19:00 -21°C° 0 mm 2 mps 758 mmHg 91%
    20:00 -20°C° 0 mm 2 mps 758 mmHg 90%
    21:00 -19°C° 0 mm 2 mps 757 mmHg 89%
    22:00 -19°C° 0 mm 3 mps 757 mmHg 88%
    23:00 -18°C° 0 mm 3 mps 757 mmHg 87%

    25 January, Friday

    Time Temperature Precipitation Wind Pressure Humidity
    00:00 -18°C° 0 mm 4 mps 756 mmHg 86%
    01:00 -18°C° 0 mm 5 mps 756 mmHg 84%
    02:00 -18°C° 0.2 mm 5 mps 755 mmHg 86%
    03:00 -18°C° 0.2 mm 6 mps 755 mmHg 87%
    04:00 -18°C° 0.2 mm 7 mps 754 mmHg 89%
    05:00 -18°C° 0.4 mm 7 mps 753 mmHg 90%
    06:00 -18°C° 0.4 mm 7 mps 753 mmHg 91%
    07:00 -18°C° 0.4 mm 7 mps 752 mmHg 92%
    08:00 -17°C° 0.5 mm 7 mps 752 mmHg 92%
    09:00 -17°C° 0.5 mm 7 mps 752 mmHg 92%
    10:00 -17°C° 0.5 mm 7 mps 751 mmHg 91%
    11:00 -17°C° 0.3 mm 7 mps 751 mmHg 92%
    12:00 -15°C° 0.3 mm 6 mps 751 mmHg 92%
    13:00 -15°C° 0.3 mm 6 mps 751 mmHg 92%
    14:00 -14°C° 0.2 mm 5 mps 751 mmHg 93%
    15:00 -14°C° 0.2 mm 4 mps 750 mmHg 93%
    16:00 -14°C° 0.2 mm 4 mps 750 mmHg 93%
    17:00 -14°C° 0.1 mm 3 mps 751 mmHg 94%
    18:00 -13°C° 0.1 mm 2 mps 751 mmHg 95%
    19:00 -13°C° 0.1 mm 2 mps 751 mmHg 95%
    20:00 -13°C° 0 mm 2 mps 751 mmHg 96%
    21:00 -12°C° 0 mm 1 mps 751 mmHg 96%
    22:00 -12°C° 0 mm 1 mps 752 mmHg 96%
    23:00 -13°C° 0 mm 1 mps 752 mmHg 96%

    26 January, Saturday

    Time Temperature Precipitation Wind Pressure Humidity
    00:00 -13°C° 0 mm 1 mps 752 mmHg 96%
    01:00 -14°C° 0 mm 1 mps 752 mmHg 96%
    02:00 -15°C° 0 mm 1 mps 752 mmHg 97%
    03:00 -18°C° 0 mm 2 mps 752 mmHg 97%
    04:00 -19°C° 0 mm 2 mps 752 mmHg 98%
    05:00 -20°C° 0 mm 2 mps 752 mmHg 98%
    06:00 -21°C° 0 mm 2 mps 752 mmHg 99%
    07:00 -23°C° 0 mm 2 mps 753 mmHg 99%
    08:00 -23°C° 0 mm 2 mps 753 mmHg 98%
    09:00 -23°C° 0 mm 2 mps 753 mmHg 97%
    10:00 -23°C° 0 mm 2 mps 753 mmHg 96%
    11:00 -21°C° 0 mm 2 mps 753 mmHg 94%
    12:00 -20°C° 0 mm 2 mps 753 mmHg 92%
    13:00 -21°C° 0 mm 3 mps 753 mmHg 90%
    14:00 -21°C° 0 mm 3 mps 753 mmHg 91%
    15:00 -22°C° 0 mm 3 mps 753 mmHg 93%
    16:00 -23°C° 0 mm 3 mps 753 mmHg 94%
    17:00 -24°C° 0 mm 3 mps 753 mmHg 93%
    18:00 -25°C° 0 mm 3 mps 754 mmHg 92%
    19:00 -26°C° 0 mm 3 mps 754 mmHg 91%
    20:00 -26°C° 0 mm 3 mps 754 mmHg 89%
    21:00 -26°C° 0 mm 3 mps 754 mmHg 88%
    22:00 -26°C° 0 mm 3 mps 754 mmHg 86%
    23:00 -26°C° 0 mm 3 mps 753 mmHg 86%

    27 January, Sunday

    Time Temperature Precipitation Wind Pressure Humidity
    00:00 -25°C° 0 mm 2 mps 753 mmHg 85%
    01:00 -25°C° 0 mm 2 mps 753 mmHg 85%
    02:00 -25°C° 0 mm 2 mps 753 mmHg 84%
    03:00 -24°C° 0 mm 2 mps 753 mmHg 83%
    04:00 -24°C° 0 mm 2 mps 753 mmHg 82%
    05:00 -24°C° 0 mm 3 mps 752 mmHg 82%
    06:00 -24°C° 0 mm 3 mps 752 mmHg 81%
    07:00 -23°C° 0 mm 3 mps 752 mmHg 80%
    08:00 -21°C° 0 mm 3 mps 752 mmHg 79%
    09:00 -20°C° 0 mm 4 mps 752 mmHg 79%
    10:00 -20°C° 0 mm 5 mps 752 mmHg 78%
    11:00 -19°C° 0 mm 5 mps 751 mmHg 80%
    12:00 -17°C° 0 mm 6 mps 751 mmHg 82%
    13:00 -16°C° 0 mm 6 mps 750 mmHg 84%
    14:00 -16°C° 0.1 mm 6 mps 750 mmHg 84%
    15:00 -17°C° 0.1 mm 6 mps 750 mmHg 84%
    16:00 -17°C° 0.1 mm 6 mps 749 mmHg 85%
    17:00 -17°C° 0.1 mm 6 mps 749 mmHg 85%
    18:00 -17°C° 0.1 mm 6 mps 749 mmHg 85%
    19:00 -18°C° 0.1 mm 6 mps 749 mmHg 85%
    20:00 -17°C° 0.1 mm 6 mps 749 mmHg 85%
    21:00 -17°C° 0.1 mm 6 mps 749 mmHg 85%
    22:00 -17°C° 0.1 mm 6 mps 749 mmHg 84%
    23:00 -17°C° 0.1 mm 6 mps 749 mmHg 84%
    Show more